DW8016 Weather Reports


time (UTC)temp
F
wind
direction
speed
knots
gust
knots
rain 1hr
in
rain 24hr
in
rain mn
in
humidity
%
barometer
mb
20260504210854 79 163 4.3 10.4 0.00 0.00 0.00 30 1008.3
20260504205820 79 145 4.3 8.7 0.00 0.00 0.00 29 1008.2
20260504204800 79 184 3.5 12.2 0.00 0.00 0.00 30 1008.4
20260504203813 79 175 3.5 12.2 0.00 0.00 0.00 28 1008.4
20260504202812 79 189 3.5 11.3 0.00 0.00 0.00 29 1008.5
20260504201749 79 250 2.6 8.7 0.00 0.00 0.00 29 1008.7
20260504200801 79 186 2.6 7.8 0.00 0.00 0.00 30 1008.8
20260504194546 79 229 2.6 9.6 0.00 0.00 0.00 30 1009.0
20260504193540 77 244 3.5 11.3 0.00 0.00 0.00 30 1009.2
20260504192531 77 213 4.3 11.3 0.00 0.00 0.00 30 1009.3
20260504190407 78 166 3.5 10.4 0.00 0.00 0.00 32 1009.7
20260504185424 77 167 4.3 10.4 0.00 0.00 0.00 31 1010.0
20260504184412 78 157 3.5 8.7 0.00 0.00 0.00 30 1010.1
20260504183357 79 184 2.6 8.7 0.00 0.00 0.00 29 1010.2
20260504182343 79 227 3.5 12.2 0.00 0.00 0.00 30 1010.4
20260504180151 78 148 2.6 9.6 0.00 0.00 0.00 32 1010.8
20260504175209 77 268 3.5 9.6 0.00 0.00 0.00 31 1011.0
20260504174155 78 117 2.6 9.6 0.00 0.00 0.00 31 1011.1
20260504172101 76 254 2.6 7.8 0.00 0.00 0.00 33 1011.2
20260504171111 76 243 3.5 9.6 0.00 0.00 0.00 31 1011.5
20260504151016 74 136 2.6 7.8 0.00 0.00 0.00 29 1012.8
20260504140952 68 251 2.6 7.0 0.00 0.00 0.00 36 1013.1
20260504081528 52 211 0.0 3.5 0.00 0.00 0.00 60 1014.3
20260504080457 52 215 0.0 0.9 0.00 0.00 0.00 60 1014.4
20260504070402 53 191 0.0 0.0 0.00 0.00 0.00 54 1014.3
20260504050121 49 263 0.0 0.0 0.00 0.00 0.00 60 1014.7
20260504045105 49 263 0.0 0.0 0.00 0.00 0.00 60 1014.7
20260504044054 49 263 0.0 0.0 0.00 0.00 0.00 58 1014.8
20260504041943 49 263 0.0 0.0 0.00 0.00 0.00 58 1014.7
20260504040958 49 263 0.0 0.0 0.00 0.00 0.00 59 1014.6
20260504040000 48 263 0.0 0.0 0.00 0.00 0.00 58 1014.7
20260504033741 49 263 0.0 0.0 0.00 0.00 0.00 56 1014.7
20260504032713 49 263 0.0 0.0 0.00 0.00 0.00 56 1014.6
20260504031707 50 263 0.0 0.0 0.00 0.00 0.00 56 1014.5
20260504025512 50 263 0.0 0.0 0.00 0.00 0.00 54 1014.5
20260504023359 50 263 0.0 0.0 0.00 0.00 0.00 55 1014.3
20260504022351 50 263 0.0 0.0 0.00 0.00 0.00 55 1014.2
20260504021341 50 263 0.0 0.0 0.00 0.00 0.00 55 1014.1
20260504020325 51 263 0.0 0.0 0.00 0.00 0.00 52 1014.1
20260504015343 52 263 0.0 0.0 0.00 0.00 0.00 52 1014.0
20260504014407 53 263 0.0 0.0 0.00 0.00 0.00 49 1013.9
20260504013429 53 263 0.0 0.0 0.00 0.00 0.00 48 1013.9
20260504012403 54 263 0.0 0.0 0.00 0.00 0.00 46 1013.8
20260504011340 55 263 0.0 0.0 0.00 0.00 0.00 45 1013.8
20260504010347 56 263 0.0 0.0 0.00 0.00 0.00 43 1013.8
20260504005403 56 263 0.0 0.0 0.00 0.00 0.00 42 1013.8
20260504004350 57 263 0.0 0.0 0.00 0.00 0.00 41 1013.6
20260504002238 59 263 0.0 0.9 0.00 0.00 0.00 34 1013.5
20260504001237 60 263 0.0 0.9 0.00 0.00 0.00 32 1013.5
20260504000211 61 263 0.0 0.9 0.00 0.00 0.00 32 1013.3
20260503235222 61 263 0.0 5.2 0.00 0.00 0.00 31 1013.2
20260503233034 62 242 0.9 5.2 0.00 0.00 0.00 30 1013.2
20260503232045 62 296 1.7 5.2 0.00 0.00 0.00 29 1013.0
20260503231023 63 322 0.0 5.2 0.00 0.00 0.00 31 1012.8
20260503230015 63 286 0.9 7.0 0.00 0.00 0.00 29 1012.8
20260503225008 63 294 1.7 7.0 0.00 0.00 0.00 28 1012.9
20260503222811 64 332 1.7 6.1 0.00 0.00 0.00 28 1013.0
20260503221746 64 322 2.6 9.6 0.00 0.00 0.00 27 1012.9
20260503220747 64 261 0.9 7.0 0.00 0.00 0.00 27 1013.1
20260503215722 64 288 2.6 9.6 0.00 0.00 0.00 27 1013.1
20260503214728 65 300 1.7 9.6 0.00 0.00 0.00 28 1013.1
20260503213730 65 302 1.7 7.8 0.00 0.00 0.00 27 1013.1
20260503212740 65 278 1.7 5.2 0.00 0.00 0.00 28 1013.2
20260503211711 65 317 0.9 10.4 0.00 0.00 0.00 28 1013.2